Find CZ-2C sep motor cover

NORAD ID: 100368 Int'l Des: 2026-187 Owner: CNSA Country: CN operational
別名: OBJECT C spacetrack, celestrak

現在のビュー

3D地球を読み込み中...

About CZ-2C sep motor cover

CZ-2C sep motor cover (NORAD 100368) is a satellite launched Aug 17, 2026 by CNSA of CN. with a mass of 1.00 kg.

次回通過

Passes for default location (London). Set your location on the main map for personalized predictions.

高度履歴

Loading altitude history...

軌道要素

1 A0368U 26188C 26255.95114861 .00055371 00000-0 19045-2 0 9999
2 A0368 97.5250 325.3090 0023127 217.4952 142.4676 15.29625076 4102
Epoch: Sep 12, 2026 • Age: 7 hours

現在のステータス

高度 500.6 km
遠地点 / 近地点 N/A
速度 7.61 km/s
衛星直下点 52.26°N, 116.48°W
打ち上げ日 Aug 17, 2026
運用期間 27 days
タイプ other

技術仕様

分類 Component
質量 1.00 kg
乾燥質量 1.00 kg
総質量 1.00 kg
長さ 0.20 m
直径 0.20 m
スパン 0.20 m
形状 Cone
フェーズステータス In Orbit
所有者/国 CNSA/CN

Most Searched